Regional Weather Roundup
Issued by NWS

Home | Current Version | Previous Version | Text Only | Print | Product List | Glossary On
Versions: 1 2 3 4 5 6 7 8 9 10 11 12 13 14 15 16 17 18 19 20 21 22 23 24 25 26 27 28 29 30 31 32 33 34 35 36 37 38 39 40 41 42 43 44 45 46 47 48 49 50
000
ASUS43 KLMK 231710
RWRKY
KENTUCKY REGIONAL WEATHER ROUNDUP
NATIONAL WEATHER SERVICE LOUISVILLE KY
100 PM EDT WED APR 23 2014

NOTE "FAIR" INDICATES FEW OR NO CLOUDS BELOW 12,000 FEET
WITH NO SIGNIFICANT WEATHER AND/OR OBSTRUCTIONS TO VISIBILITY.

KYZ001>023-026-027-061>063-070>075-231800-
WESTERN AND SOUTH CENTRAL KENTUCKY

CITY           SKY/WX    TMP DP  RH WIND       PRES   REMARKS
PADUCAH        SUNNY     64  39  39 NE12      30.09S
HENDERSON      SUNNY     55  34  44 N7        30.11F
OWENSBORO      SUNNY     56  30  37 NE3       30.12F
HOPKINSVILLE   SUNNY     61  37  41 E8        30.09F
BOWLING GREEN  SUNNY     61  30  31 N7        30.09F
GLASGOW        SUNNY     60  31  33 NW5       30.09F
$$

KYZ024-025-028>034-038-045-046-053-231800-
NORTH CENTRAL KENTUCKY

CITY           SKY/WX    TMP DP  RH WIND       PRES   REMARKS
LOUISVILLE/SDF MOSUNNY   56  30  37 CALM      30.11F
LOUISVILLE/LOU SUNNY     58  32  37 NE8       30.11F
FORT KNOX      MOSUNNY   56  29  35 VRB1      30.10F
$$

KYZ035>037-039>044-047>052-055>060-089>105-231800-
NORTHEAST KENTUCKY

CITY           SKY/WX    TMP DP  RH WIND       PRES   REMARKS
LEXINGTON      SUNNY     54  33  45 N8        30.10S
COVINGTON      SUNNY     53  30  41 CALM      30.10F
FRANKFORT      SUNNY     53  30  41 CALM      30.10S
$$

KYZ054-064>069-076>088-106>120-231800-
SOUTHEAST KENTUCKY

CITY           SKY/WX    TMP DP  RH WIND       PRES   REMARKS
JACKSON        SUNNY     56  28  34 VRB6      30.05F
LONDON         SUNNY     58  27  30 N3        30.05F
SOMERSET       SUNNY     57  32  38 N6        30.08F
MIDDLESBORO    SUNNY     61  30  31 NW7       30.03F
MONTICELLO     SUNNY     60  33  36 CALM      30.09F
$$




USA.gov is the U.S. government's official web portal to all federal, state and local government web resources and services.